{"data":{"norad_id":64191,"epoch":"2026-05-25T02:53:52.883808Z","epoch_age_seconds":60704,"freshness":"FRESH","line1":"1 64191U 25113X   26145.12075097  .00026902  00000+0  91696-3 0  9994","line2":"2 64191  53.1597  96.3536 0001241  84.9845 275.1297 15.30205985 56722","mean_motion":15.30205985,"eccentricity":0.0001241,"inclination_deg":53.1597,"raan_deg":96.3536,"arg_perigee_deg":84.9845,"mean_anomaly_deg":275.1297,"bstar":0.00091696,"rev_number":5672,"period_min":94.104977638027,"perigee_km":474.34670057223,"apogee_km":476.04769812051,"semimajor_km":6853.3341993464,"source":"CELESTRAK","updated_at":"2026-05-25T13:38:20.314419Z"}}